星链-3122 (STARLINK-3122 )

导读

STARLINK-3122是美国SpaceX公司星链(Starlink)星座的一颗互联网通信卫星,于2021年11月13日发射,运行在近地轨道。作为星链巨型星座的组成部分,它旨在为全球提供高速低延迟宽带互联网服务,尤其覆盖偏远地区。截至当前,卫星已在轨运行超过四年,持续服务全球卫星互联网组网,推进星链全球覆盖目标实现。

基本信息
目录编号:
49445
目录名称:
STARLINK-3122
国际标识:
2021-104AP
轨道中心:
EARTH
卫星名称:
星链-3122
卫星全名:
星链-3122 (STARLINK-3122 )
卫星状态:
在轨 (已飞行1756 天)
发射日期:
2021-11-13 UTC
国别 :
美国 (US)
星等 :
--
轨道信息
数据来源 国际轨道数据
星历时间: 2026-09-04T00:21:13+0800
12小时前
查看轨道信息
半长轴: 6843.376km
偏心率: 0.0001197
轨道倾角: 53.159°
近地点辐角 93.743°
升交点赤经 130.401°
平近点角 266.371°
近地点: 464.419km
远地点: 466.059km
周期: 93.900分钟
每日圈数: 15.335473
详细信息
固有亮度:
5
最大亮度:
2.5
卫星平台:
Starlink v1.5
覆盖范围:
全球
运营商:
太空探索技术公司
运营商所在国:
美国
制造商(研发单位):
太空探索技术公司
制造商所在国:
美国
使用方式:
暂无
卫星简介
星链(Starlink)计划是由太空探索技术公司(SpaceX)提出的一个巨型低轨卫星互联网星座项目,计划在2019年至2024年间在太空搭建由约1.2万颗卫星组成的“星链”网络,其中1584颗将部署在地球上空550千米处的近地轨道,并从2020年开始工作。该卫星仍在工作。
2D轨道图
3D轨道图
轨道高度分析图
轨道倾角分析图
轨道综合分析图
查看轨道综合分析图
交会数据列表
事件ID 空间交会对象 最接近时刻(TCA) 交会距离 交会风险概率(CRP) 交会风险指数(CRI) 操作
CDM_260904-071604-944505-846622
UHETSAT (58466)
2026-09-04T
07:16:06+0000
1.495 km
极远距离
6.765081E-6 低风险 0.52
CDM_260905-120704-944506-026021
2026-09-05T
12:07:37+0000
2.460 km
极远距离
1.612213E-6 低风险 0.39
CDM_260904-023204-944505-477721
2026-09-04T
02:32:25+0000
2.556 km
极远距离
1.507017E-6 低风险 0.39
CDM_260829-033404-944505-301121
2026-08-29T
03:34:00+0000
2.476 km
极远距离
1.50628E-6 低风险 0.39
CDM_260904-055704-944506-803421
2026-09-04T
05:57:07+0000
2.423 km
极远距离
1.423838E-6 低风险 0.38
CDM_260904-081904-944505-348721
2026-09-04T
08:19:24+0000
2.822 km
极远距离
1.3566E-6 低风险 0.38
CDM_260903-165804-944506-588221
2026-09-03T
16:58:16+0000
2.822 km
极远距离
1.227318E-6 低风险 0.37
CDM_260903-142304-944506-838422
2026-09-03T
14:23:22+0000
2.966 km
极远距离
1.208748E-6 低风险 0.37
CDM_260904-083504-944506-967921
2026-09-04T
08:35:37+0000
2.600 km
极远距离
1.055272E-6 低风险 0.35
CDM_260905-032704-944506-942121
2026-09-05T
03:27:38+0000
2.610 km
极远距离
9.655761E-7 极低风险 0.35